Flag for U.S.A. Weather past 2 weeks in Prescott, Arizona, U.S.A.

Now
40 °F

Clear.


Feels Like: 40 °F
Forecast: 33 / 59 °F
Wind: No wind

Location: Love Field

Current Time: Jan 26, 2015 at 2:05:23 AM

Latest Report: Jan 26, 2015 at 12:53 AM


Visibility: 10 mi

Pressure: 30.15 "Hg

Humidity: 47%

Dew point: 21 °F

Location of PrescottLocation

Historic Weather in Prescott — Graph

°F

Prescott temperature yesterday

Maximum temperature yesterday: 68 °F (at 3:53 PM)
Minimum temperature yesterday: 27 °F (at 1:53 AM)
Average temperature yesterday: 45 °F

Past Weeks' High & Low Weather Summary

 TemperatureHumidityPressure
High68 °F (Jan 25, 3:53 PM)97% (Jan 11, 8:53 AM)30.38 "Hg (Jan 11, 8:53 AM)
Low20 °F (Jan 23, 5:53 AM)12% (Jan 24, 4:53 PM)29.83 "Hg (Jan 21, 4:53 AM)
Average41 °F57%30.15 "Hg
* Reported Jan 11 12:53 AM — Jan 26 12:53 AM, Prescott, Weather by CustomWeather, © 2014

Note: Actual official high and low records may vary slightly from our data, if they occured in-between our weather recording intervals... More about our weather records

Advertising

Prescott weather history for previous 24 hours

 ConditionsComfort  
Time TempWeatherWind HumidityBarometerVisibility
12:53 AM
Jan 26
40 °FClear.No wind47%30.15 "Hg10 mi
11:53 PM
Jan 25
41 °FClear.No wind45%30.16 "Hg10 mi
10:53 PM44 °FClear.No wind40%30.16 "Hg10 mi
9:53 PM45 °FClear.3 mph38%30.15 "Hg10 mi
8:53 PM43 °FClear.No wind45%30.18 "Hg10 mi
7:53 PM47 °FClear.No wind37%30.19 "Hg10 mi
6:53 PM50 °FClear.No wind35%30.16 "Hg10 mi
5:53 PM57 °FClear.8 mph26%30.12 "Hg8 mi
4:53 PM65 °FSunny.8 mph19%30.09 "Hg10 mi
3:53 PM68 °FSunny.5 mph15%30.08 "Hg10 mi
2:53 PM66 °FSunny.6 mph17%30.09 "Hg10 mi
1:53 PM63 °FSunny.9 mph20%30.12 "Hg10 mi
12:53 PM61 °FSunny.7 mph21%30.14 "Hg10 mi
11:53 AM56 °FSunny.6 mph23%30.17 "Hg10 mi
10:53 AM52 °FSunny.6 mph26%30.21 "Hg10 mi
9:53 AM49 °FSunny.3 mph29%30.22 "Hg10 mi
8:53 AM37 °FSunny.6 mph50%30.24 "Hg10 mi
7:53 AM27 °FSunny.3 mph63%30.27 "Hg10 mi
6:53 AM29 °FClear.5 mph58%30.21 "Hg10 mi
5:53 AM29 °FClear.3 mph58%30.19 "Hg10 mi
4:53 AM27 °FClear.7 mph63%30.16 "Hg10 mi
3:53 AM27 °FClear.8 mph63%30.17 "Hg10 mi
2:53 AM29 °FClear.5 mph56%30.18 "Hg10 mi
Weather by CustomWeather, © 2014

See weather overviewHow to use our weather pages